[Iaude] MPEC U297: 2023 UO10 [a=18.64,e=0.80,i=23.9,H=16.0]
    mpec at marsden.cfa.harvard.edu 
    mpec at marsden.cfa.harvard.edu
       
    Tue Oct 31 11:02:28 EDT 2023
    
    
  
M.P.E.C. 2023-U297                             Issued 2023 October 31, 15:00 UT
     The Minor Planet Electronic Circulars contain information on unusual
         minor planets, routine data on comets and natural satellites,
         and occasional editorial announcements.  They are published
    on behalf of Division F of the International Astronomical Union by the
          Minor Planet Center, Smithsonian Astrophysical Observatory,
                          Cambridge, MA 02138, U.S.A.
			  
             Prepared using the Tamkin Foundation Computer Network
                              MPC at CFA.HARVARD.EDU
            URL https://www.minorplanetcenter.net/    ISSN 1523-6714
                                   2023 UO10                                    
Observations:
     K23U10O  C2023 10 04.60046003 23 32.327-13 11 01.37         21.90GVEU297F52
     K23U10O  C2023 10 04.60818003 23 32.252-13 11 04.01         21.68GVEU297F52
     K23U10O  C2023 10 04.61589603 23 32.181-13 11 06.71         21.94GVEU297F52
     K23U10O  C2023 10 04.62361303 23 32.093-13 11 09.15         21.86GVEU297F52
     K23U10O  C2023 10 05.54552803 23 24.615-13 16 09.18         21.55GVEU297F52
     K23U10O  C2023 10 05.55916803 23 24.468-13 16 13.86         21.94GVEU297F52
     K23U10O  C2023 10 05.57275703 23 24.324-13 16 18.20         21.89GVEU297F52
     K23U10O  C2023 10 05.58628303 23 24.198-13 16 22.57         21.72GVEU297F52
     K23U10O  C2023 10 12.52019903 22 02.466-13 51 55.77         21.14GVEU297F51
     K23U10O  C2023 10 12.53253803 22 02.280-13 51 59.11         20.99GVEU297F51
     K23U10O  C2023 10 12.54486503 22 02.063-13 52 03.08         21.34GVEU297F51
     K23U10O* C2023 10 16.52816703 20 57.015-14 10 24.84         21.80wXEU297F52
     K23U10O  C2023 10 16.53915603 20 56.803-14 10 27.75         22.13wXEU297F52
     K23U10O  C2023 10 16.55012403 20 56.603-14 10 30.62         22.17wXEU297F52
     K23U10O  C2023 10 21.48321803 19 20.268-14 30 38.31         22.21wXEU297F51
     K23U10O  C2023 10 21.49479603 19 19.992-14 30 40.88         21.89wXEU297F51
     K23U10O  C2023 10 21.50640903 19 19.757-14 30 43.45         22.12wXEU297F51
     K23U10O  C2023 10 21.57146303 19 18.285-14 30 58.23         21.08GVEU297F51
     K23U10O  C2023 10 21.57227503 19 18.278-14 30 58.39         21.07GVEU297F51
     K23U10O  C2023 10 24.45155203 18 15.071-14 41 10.03         21.18GVEU297F52
     K23U10O  C2023 10 24.46386203 18 14.772-14 41 13.01         21.62GVEU297F52
     K23U10O DC2023 10 27.26164 03 17 09.13 -14 49 56.8          21.5 GVEU297695
     K23U10O DC2023 10 27.28625 03 17 08.52 -14 50 01.4          21.4 GVEU297695
     K23U10O DC2023 10 27.31086 03 17 07.90 -14 50 05.3          21.7 GVEU297695
     K23U10O  C2023 10 30.45518803 15 49.851-14 58 24.18         21.41GVEU297F51
     K23U10O  C2023 10 30.46767703 15 49.518-14 58 25.97         21.56GVEU297F51
     K23U10O  C2023 10 30.48016303 15 49.194-14 58 27.72         21.71GVEU297F51
     K23U10O  C2023 10 30.49263303 15 48.870-14 58 29.80         21.90GVEU297F51
Observer details:
695 Kitt Peak.  Observer J. V. Scotti.  2.3-m f/9 reflector + CCD.
F51 Pan-STARRS 1, Haleakala.  Observers J. Bulger, T. Lowe, P. Minguez, A.
    Schultz, I. Smith.  Measurers K. Chambers, T. de Boer, J. Fairlamb, H.
    Gao, M. Huber, C.-C. Lin, E. Magnier, Y. Ramanjooloo, R. Wainscoat, R.
    Weryk.  1.8-m Ritchey-Chretien + CCD.
F52 Pan-STARRS 2, Haleakala.  Observers J. Bulger, T. Lowe, P. Minguez, A.
    Schultz, I. Smith.  Measurers K. Chambers, T. de Boer, J. Fairlamb, H.
    Gao, M. Huber, C.-C. Lin, E. Magnier, Y. Ramanjooloo, R. Wainscoat, R.
    Weryk.  1.8-m Ritchey-Chretien + CCD.
Orbital elements:
2023 UO10                                                                       
Epoch 2023 Sept. 13.0 TT = JDT 2460200.5                Bell                    
M   0.62893              (2000.0)            P               Q                  
n   0.01224496     Peri.  251.94682     +0.86261330     -0.40064768             
a  18.6422246      Node   130.40957     +0.45377286     +0.88267732             
e   0.7999565      Incl.   23.92874     -0.22358106     +0.24568717             
P  80.5            H   16.02          G   0.15           U   6                  
Residuals in seconds of arc
231004 F52  0.1+  0.2+    231012 F51  0.1-  0.2-    231024 F52  0.0   0.3-
231004 F52  0.0   0.0     231016 F52  0.2-  0.1+    231027 695  0.1-  0.0
231004 F52  0.1-  0.2-    231016 F52  0.2-  0.0     231027 695  0.0   0.3-
231004 F52  0.3-  0.1-    231016 F52  0.1-  0.1+    231027 695  0.1+  0.1+
231005 F52  0.3+  0.2+    231021 F51  0.1-  0.1+    231030 F51  0.1-  0.1+
231005 F52  0.1+  0.1-    231021 F51  0.3-  0.2+    231030 F51  0.1-  0.1+
231005 F52  0.0   0.0     231021 F51  0.0   0.2+    231030 F51  0.0   0.1+
231005 F52  0.1+  0.0     231021 F51  0.3-  0.0     231030 F51  0.1+  0.2-
231012 F51  0.0   0.0     231021 F51  0.1-  0.0
231012 F51  0.2+  0.2+    231024 F52  0.1+  0.2+
Ephemeris:
2023 UO10                a,e,i = 18.64, 0.80, 24                 q = 3.7293
Date    TT    R. A. (2000) Decl.     Delta      r    Elong.  Phase     V
2023 10 01    03 23 54.4 -12 50 59   3.0123  3.7699   133.3    11.2    22.0
...
2023 10 16    03 21 06.4 -14 08 03   2.9479  3.7891   142.6     9.2    21.9
...
2023 10 24    03 18 25.3 -14 39 37   2.9339  3.8009   146.2     8.4    21.8
...
2023 10 30    03 16 01.4 -14 57 16   2.9334  3.8103   147.7     8.0    21.8
2023 10 31    03 15 36.0 -14 59 39   2.9341  3.8120   147.9     8.0    21.8
2023 11 01    03 15 10.2 -15 01 52   2.9351  3.8136   148.0     7.9    21.8
...
2023 11 07    03 12 30.2 -15 11 31   2.9462  3.8238   148.1     7.9    21.8
...
2023 11 15    03 08 51.3 -15 14 04   2.9749  3.8383   146.4     8.2    21.9
...
2023 11 30    03 02 37.6 -14 45 59   3.0700  3.8680   138.9     9.6    22.0
M. P. C. Staff               (C) Copyright 2023 MPC           M.P.E.C. 2023-U297
    
    
More information about the Iaude
mailing list